Regional Weather Roundup
Issued by NWS Wakefield, VA

Home | Current Version | Previous Version | Graphics & Text | Print | Product List | Glossary On
Versions: 1 2 3 4 5 6 7 8 9 10 11 12 13 14 15 16 17 18 19 20 21 22 23 24 25 26 27
000
ASUS41 KAKQ 220015
RWRAKQ

REGIONAL WEATHER ROUNDUP
NATIONAL WEATHER SERVICE WAKEFIELD VA
800 PM EDT THU SEP 21 2017

Note: "fair" indicates few or no clouds below 12,000 feet with no
significant weather and/or obstructions to visibility. * = Denotes
station may not report precipitation (e.g., rain,snow,etc.),
thunder or fog.

VAZ042-051-052>054-056-220100-
NORTHERN VIRGINIA

CITY           SKY/WX    TMP DP  RH WIND       PRES   REMARKS
WASH NATIONAL  MOCLDY    81  66  60 N8        30.02S
DULLES         MOCLDY    72  65  78 CALM      30.03S
FORT BELVOIR   CLEAR     71  66  83 CALM      30.02R
QUANTICO       CLEAR     75  71  87 NW6       30.03R
FREDERICKSBRG* CLEAR     72  67  84 CALM      30.02R
STAFFORD*      CLEAR     68  68 100 CALM      30.07R
WARRENTON      CLEAR     67  59  75 N3        30.03S
CULPEPER*      CLEAR     69  65  88 NE3       30.04S
MANASSAS*      CLEAR     71  65  81 CALM      30.03S
LEESBURG*      CLEAR     73  70  88 CALM      30.05R
WINCHESTER     CLEAR     68  63  83 CALM      30.05S
FRONT ROYAL*   PTCLDY    72  64  78 CALM      30.04S
LURAY*         PTCLDY    73  63  68 NE3       30.06R
$$

VAZ048-049-060>072-079>083-220100-
CENTRAL AND SOUTH CENTRAL VIRGINIA

CITY           SKY/WX    TMP DP  RH WIND       PRES   REMARKS
RICHMOND       MOCLDY    77  65  66 CALM      30.02R
CHESTERFIELD*  NOT AVBL
PETERSBURG*    PTCLDY    70  70 100 CALM      30.02S
HANOVER        CLEAR     72  67  84 CALM      30.03R
TAPPAHANNOCK*  CLEAR     73  62  68 CALM      30.02S
QUINTON*       FAIR      73  71  93 CALM      30.01R
CHARLOTTSVILLE CLEAR     77  66  68 N3        30.05R
GORDONSVILLE*  CLEAR     71  67  89 CALM      30.04R
ORANGE*        CLEAR     68  64  88 CALM      30.04R
LOUISA*        PTCLDY    66  63  88 CALM      30.04R
BUMPASS*       FAIR      70  67  92 CALM      30.03S
FARMVILLE*     CLEAR     74  65  74 CALM      30.02R
CREWE*         FAIR      69  69 100 CALM      30.02S
FORT PICKETT*  FAIR      71  65  81 N3        30.02S
CHASE CITY*    FAIR      73  66  80 CALM      30.03R
CLARKSVILLE*   FAIR      73  64  73 CALM      30.02R
SOUTH HILL*    CLEAR     69  68  94 CALM      30.08R
LAWRENCEVILLE* FAIR      73  68  84 CALM      30.02R
EMPORIA*       PTCLDY    72  68  88 CALM      30.02S
$$

VAZ088>098-220100-
SOUTHEAST VIRGINIA

CITY           SKY/WX    TMP DP  RH WIND       PRES   REMARKS
NORFOLK        CLEAR     75  69  81 E5        30.01R
VIRGINIA BEACH PTCLDY    73  66  78 E6        30.01R
NORFOLK NAVAL  PTCLDY    76  68  76 E6        30.02S
WEST POINT*    CLEAR     72  66  83 CALM      30.03R
SALUDA*        FAIR      72  69  90 CALM      30.01R
NEWPORT NEWS   CLEAR     73  67  81 CALM      30.01S
LANGLEY AFB    CLEAR     74  67  79 E3        30.01R
FORT EUSTIS    CLEAR     78  67  71 E3        29.99R
WILLIAMSBURG*  CLEAR     75  72  88 CALM      30.02R
HR EXEC AP*    FAIR      69  67  93 CALM      30.02R
FRANKLIN*      CLEAR     73  67  79 CALM      30.01S
US460-WAKEFLD  CLEAR     72  70  93 CALM      30.01R
$$

VAZ020-022-025-037-045-220100-
WEST CENTRAL AND SOUTHWEST VIRGINIA

CITY           SKY/WX    TMP DP  RH WIND       PRES   REMARKS
STAUNTON*      PTCLDY    72  62  69 CALM      30.09R
WAYNESBORO*    PTCLDY    74  65  74 CALM      30.08S
HOT SPRINGS VA MOCLDY    67  55  64 CALM      30.21S
LYNCHBURG      CLEAR     71  63  75 CALM      30.05R
DANVILLE       CLEAR     72  68  87 CALM      30.03R
SOUTH BOSTON*  FAIR      73  67  79 CALM      30.02S
MARTINSVILLE   CLEAR     70  67  92 CALM      30.07R
ROANOKE        MOCLDY    80  63  55 E5        30.07R
BLACKSBURG     PTCLDY    73  65  74 CALM      30.14R
DUBLIN*        CLEAR     73  65  76 CALM      30.12R
MARION*        CLEAR     70  63  78 CALM      30.16S
HILLSVILLE*    CLEAR     69  60  74 CALM      30.13S
RICHLANDS*     FAIR      73  61  65 CALM      30.14S
WISE*          CLEAR     72  61  68 CALM      30.15S
ABINGDON*      CLEAR     74  64  68 CALM      30.10S
$$

MDZ021>025-VAZ099-100-220100-
SOUTHERN MARYLAND AND THE DELMARVA PENINSULA

CITY           SKY/WX    TMP DP  RH WIND       PRES   REMARKS
PATUXENT RIVER PTCLDY    71  65  81 W3        30.01R
BAY BRIDGE APT MOCLDY    75  68  78 CALM      30.01S
LEONARDTOWN    CLEAR     70  64  83 CALM      30.04R
DOVER          PTCLDY    73  73 100 E5        30.01R
GEORGETOWN     PTCLDY    74  66  76 S3        30.01S
EASTON         PTCLDY    75  68  78 CALM      30.05R
CAMBRIDGE      CLEAR     73  68  83 CALM      30.01R
SALISBURY      PTCLDY    71  68  90 S5        30.02R
OCEAN CITY     PTCLDY    67  66  97 CALM      30.01S
WALLOPS ISLAND CLEAR     73  67  81 E6        30.02S
ACCOMACK*      MOCLDY    71  67  88 SE5       30.02R
$$

NCZ012>017-030>032-220100-
NORTH CENTRAL AND EASTERN NORTH CAROLINA

CITY           SKY/WX    TMP DP  RH WIND       PRES   REMARKS
ROANOKE RAPIDS FAIR      70  70 100 CALM      30.00S
RALEIGH        PTCLDY    71  64  78 CALM      30.02S
ELIZABETH CITY CLEAR     75  68  78 E6        30.01R
AHOSKIE*       PTCLDY    72  70  93 CALM      30.00S
EDENTON*       CLEAR     75  69  80 CALM      30.01S
CURRITUCK*     CLEAR     74  67  76 E3        30.02R
KILL DEVIL HLS CLEAR     71  64  76 CALM      30.00R
MANTEO         NOT AVBL
CAPE HATTERAS  CLEAR     74  69  85 E6        30.01R
TARBORO*       NOT AVBL
GOLDSBORO      CLEAR     72  72 100 SW3       29.99S
WASHINGTON     PTCLDY    74  70  86 CALM      30.01R
GREENVILLE     CLEAR     73  72  94 CALM      30.02R
NEW BERN       MOCLDY    70  69  97 CALM      30.01R
WILMINGTON     CLOUDY    70  67  90 SW6       29.99F
$$

VAZ048-220100-
ELSEWHERE

CITY           SKY/WX    TMP DP  RH WIND       PRES   REMARKS
HARRISBURG PA  CLOUDY    74  69  85 W3        30.02S
BALTIMORE      MOCLDY    80  66  62 NW3       30.02R
ANNAPOLIS      PTCLDY    78  74  87 CALM      30.01R
ANDREWS AFB    PTCLDY    78  64  62 N5        30.02R
PHILADELPHIA   MOCLDY    77  59  53 E5        30.00S
HENDERSON NC   CLEAR     72  65  80 CALM      30.02S
GREENSBORO     PTCLDY    77  68  73 E6        30.03R
ROCKY MOUNT    CLEAR     71  71 100 CALM      30.01R FOG
$$

VAZ100-220100-
MARINE

STATION/POSITION TIME  TEMP    WIND        PRES    WAVE   SWELL
                       AIR SEA DIR/SP/G            HT/PER HT/PER
                 (UTC) (F)     (DEG/KT/KT) (MB)    (FT/S) (FT/S)
BRANDYWINE LGT   2348          200/  6/  7 1016.4R
CAPE MAY NJ      2348   73 75  110/  2/  2 1015.5S
LEWES DE         2348   74 75  200/  3/  4 1015.8F
15NM E FENWICK I 2350   74 72   10/  2/  4 1016.3R   6/10   7/10
OCEAN-CITY-INLET 2348   75 75   70/  2/  4 1016.5S
WACHAPREAGUE VA  2348   74 78  140/  5/  5 1016.5R
THOMAS POINT MD  0000   78 76  270/  4/  4   N/A
GOOSES REEF MD   0000   78 76  280/  4/  4 1017.0   13
COVE POINT MD    2348   78     320/  3/  4 1016.8S
SOLOMONS ISLAND  2348   77 76  320/  1/  2 1015.9R
BISHOPS HEAD MD  2348   78 78  340/  4/  5 1016.3R
PINEY POINT MD   2348           50/  3/  3   N/A
POTOMAC MD       0000   78 77   10/  4/  6 1015.4    0
CAMBRIDGE MD     2348   77 76              1017.0S
LEWISETTA VA     2348   78 77   CALM  /  1 1016.1S
RAPPAHANNOCK LGT 2348          120/  9/  9 1016.9R
STINGRAY PT      0000   78 77   30/  6/  6 1016.5    0
YORK RVR RNG VA  2348   77     100/  6/  6 1016.7R
YORKTOWN VA      2348   77 78  120/  2/  3 1015.9R
JAMESTOWN VA     0000      78   CALM  /  2   N/A     0
DOMINION TERM VA 2348   78      10/  1/  3 1016.4R
KIPTOPEKE VA     2348      77  100/  5/  6   N/A
CHES BAY BRIDGE  2348   76 76   90/  8/  8 1016.1R
CAPE HENRY VA    2348   75      80/ 10/ 11   N/A
WILLOUBY STN VA  2348           80/  3/  4 1016.3R
S CRANEY ISL VA  2348   78      40/  5/  7 1015.9R
CAPE HENRY BUOY  0000      76                N/A     3/12   2/12
1ST LANDING BUOY 0000   76 76                N/A     2/ 5
64NM E OF VA BCH 2350   71 71   20/  6/ 10 1016.4R   7/11   7/11
DUCK PIER NC     2348   75 76   60/ 11/ 11 1015.9R
44100 DUCK FRF   2335      75                N/A     5/10   2/11
44056 DUCK FRF   0000      76                N/A     4/11   2/11
OREGON INLET NC  2348           20/  6/  8 1016.0R
HATTERAS NC      2348   75 78   80/  5/  6 1016.1R
DIAMOND SHLS NC  2350   75 76   50/ 10/ 12 1015.8R   5/11   5/11
CAPE LOOKOUT NC  0000   78     270/  2/  3 1015.4R
$$




USA.gov is the U.S. government's official web portal to all federal, state and local government web resources and services.